Regional Weather Roundup
Issued by NWS

Home | Current Version | Previous Version | Graphics & Text | Print | Product List | Glossary On
Versions: 1 2 3 4 5 6 7 8 9 10 11 12 13 14 15 16 17 18 19 20 21 22 23 24 25 26 27 28 29 30 31 32 33 34 35 36 37 38 39 40 41 42 43 44 45 46 47 48 49 50
000
ASUS45 KSLC 301410
RWRUT

UTAH REGIONAL WEATHER ROUNDUP
NATIONAL WEATHER SERVICE SALT LAKE CITY UT
800 AM MDT SUN AUG 30 2015

UTZ001>011-023>025-301500-

NORTHERN UTAH

CITY           SKY/WX    TMP DP  RH WIND       PRES   REMARKS
BRIGHAM CITY   PTSUNNY   69  46  43 N3        29.98R
HILL AFB       NOT AVBL
LOGAN          SUNNY     65  49  56 N5        30.01R
OGDEN          MOSUNNY   71  48  43 N7        29.98R
PROVO AIRPORT  PTSUNNY   72  48  43 E3        30.01R
SALT LAKE CITY PTSUNNY   75  50  41 NW9       29.97R
VERNAL         MOSUNNY   66  40  38 CALM      30.09S
WENDOVER       PTSUNNY   73  39  29 NE15      29.99R
HEBER CITY     PTSUNNY   64  54  68 CALM      30.07S
WEST JORDAN    SUNNY     79  46  31 S8G22     30.00R

$$

UTZ012>022-026-027-301500-

SOUTHERN/CENTRAL UTAH

CITY           SKY/WX    TMP DP  RH WIND       PRES   REMARKS
BLANDING       SUNNY     65  42  42 CALM      30.30R
BRYCE CANYON   SUNNY     53  48  83 CALM      30.32R
CEDAR CITY     MOSUNNY   69  47  45 SW5       30.13R
DELTA          CLOUDY    72  44  36 S12       30.04R
HANKSVILLE     MOSUNNY   70  46  43 CALM      30.08R
MILFORD        CLOUDY    70  47  43 SW12      30.07R
MOAB/CYNLANDS  MOSUNNY   71  36  27 SE6       30.06R
PRICE          PTSUNNY   67  48  50 CALM      30.15R
ST GEORGE      PTSUNNY   79  52  38 SE9       29.97R
KANAB          SUNNY     64  55  72 CALM      30.19R

$$

REGIONAL REPORTS     COLORADO/ARIZONA

CITY           SKY/WX    TMP DP  RH WIND       PRES   REMARKS
CRAIG, CO      SUNNY     53  46  77 CALM      30.21R
GRAND JUNCTION SUNNY     62  42  47 E7        30.12R
RIFLE          SUNNY     57  44  62 W3        30.20R
MONTROSE       SUNNY     63  43  48 SE7       30.22R
CORTEZ         PTSUNNY   60  50  69 CALM      30.25R
PAGE, AZ       SUNNY     78  50  37 S5        30.08R
GRAND CANYON   SUNNY     52  45  77 CALM      30.29R
KINGMAN        CLEAR     77  57  50 SE10      30.02R
FLAGSTAFF      MOSUNNY   56  52  86 CALM      30.33R

$$

REGIONAL REPORTS    NEVADA/IDAHO/WYOMING

CITY           SKY/WX    TMP DP  RH WIND       PRES   REMARKS
LAS VEGAS, NV  MOCLDY    86  44  23 S7        29.85R
ELY            PTCLDY    63  36  36 S13       30.12R
ELKO           CLEAR     57  41  55 W5        30.08R
POCATELLO, ID  SUNNY     62  48  60 S9        30.03R
BURLEY         SUNNY     57  50  77 S6        30.00R
EVANSTON, WY   MOSUNNY   67  42  40 SW10      30.17R
ROCK SPRINGS   MOSUNNY   69  35  28 S7        30.14R
KEMMERER       PTSUNNY   61  39  44 W7        30.18R

$$


USA.gov is the U.S. government's official web portal to all federal, state and local government web resources and services.